Tracking 32991 objects as of 22-Jan-2026
HD Live streaming from Space Station
objects crossing your sky now

SJ-30A

Track SJ-30A now!
10-day predictions


NORAD ID: 66545
Int'l Code: 2025-266A
Perigee: 517.6 km
Apogee: 535.1 km
Inclination: 51.8 °
Period: 95.0 minutes
Semi major axis: 6897 km
RCS: Unknown
Launch date: November 19, 2025
Source: People's Republic of China (PRC)
Launch site: Jiuquan Satellite Launch Center, China (JSC)
Your satellite tracking list
Your tracking list is empty




NASA's NSSDC Master Catalog

Two Line Element Set (TLE):
1 66545U 25266A   26022.50912461  .00011108  00000-0  59208-3 0  9995
2 66545  51.7969 141.8727 0012686 132.3299 227.8754 15.15586009  9764
Source of the keplerian elements: AFSPC